sat.trackr.live / text

‹ back to catalog

STARLINK-2480

NORAD 48137 · 2021-027AX

PAYLOAD ACTIVE UNKNOWN

§ Identity

Operator
Country
US
Launch date
2021-04-07
Launch site
AFETR
Launch vehicle
Mass (kg)
RCS (m²)

Purposes: comms

External: N2YO · Heavens-Above · Gunter

§ Orbital elements

Epoch: 2026-05-25T01:00:54.999072Z

Period
94.01 min
Inclination
53.1607°
Eccentricity
0.0000949
Mean motion
15.31702000 rev/d
Perigee alt
470.1 km
Apogee alt
471.4 km
Semi-major
6,848.9 km
B*
5.0706e-5
RAAN
160.2235°
Arg perigee
80.1975°
Mean anomaly
279.9133°
Rev number
28,433

§ Raw data

STARLINK-24801 48137U 21027AX  26145.04230323  .00001209  00000+0  50706-4 0  99932 48137  53.1607 160.2235 0000949  80.1975 279.9133 15.31702000284331

JSON: /api/v1/satellites/48137 · /tle

For live sub-satellite position, see the globe view (requires WebGL).

§ Visibility from observer

Set your observer location to see the next 7 days of passes ≥ 10°. The values pass through the URL so the page stays shareable.

No JS? Fill the form by hand. The geolocation button needs JavaScript.